sat.trackr.live / text

‹ back to catalog

PLEIADES 1B

NORAD 39019 · 2012-068A

PAYLOAD ACTIVE UNKNOWN

§ Identity

Operator
Country
FR
Launch date
2012-12-02
Launch site
FRGUI
Launch vehicle
Mass (kg)
RCS (m²)
5.44

Purposes: earth_obs

External: N2YO · Heavens-Above · Gunter

§ Orbital elements

Epoch: 2026-09-12T04:53:28.960224Z

Period
98.73 min
Inclination
98.1893°
Eccentricity
0.0001251
Mean motion
14.58564479 rev/d
Perigee alt
696.9 km
Apogee alt
698.7 km
Semi-major
7,075.9 km
B*
3.9883e-5
RAAN
329.0259°
Arg perigee
99.8292°
Mean anomaly
260.3049°
Rev number
73,353

§ Raw data

PLEIADES 1B1 39019U 12068A   26255.20380741  .00000140  00000+0  39883-4 0  99932 39019  98.1893 329.0259 0001251  99.8292 260.3049 14.58564479733538

JSON: /api/v1/satellites/39019 · /tle

For live sub-satellite position, see the globe view (requires WebGL).

§ Visibility from observer

Set your observer location to see the next 7 days of passes ≥ 10°. The values pass through the URL so the page stays shareable.

No JS? Fill the form by hand. The geolocation button needs JavaScript.

§ Radio — SatNOGS DB

ModeDescriptionDownlinkUplink
BPSK S-band telemetry 2.269 GHz

1 transmitter · refreshed weekly from db.satnogs.org